Theta_e
315 314 315 315 315 315 315 314 314 314 314 314 313 312 313 313 312 312 313 314 314 314 315 315 316 317 317 317 316 315 315 318 322 323 324 322 317 320 319 317 338 351 349 350 351 350 348 348 350 350 349 350 351 352 352 352 349 351 358 357 351 350 353 355 359 356 355 360 359 358 357 357 359 358 357 358 358 359 358 358 355 352 353 354 355 353 353 354
314 314 315 315 315 314 314 314 313 314 313 313 313 312 312 314 312 312 312 313 312 313 315 315 316 317 317 317 316 315 317 321 323 325 324 320 316 316 318 320 342 354 351 350 351 349 348 348 350 350 349 351 353 354 353 352 351 354 358 355 351 354 356 357 359 357 358 359 358 358 357 357 359 359 359 361 362 360 360 360 357 357 355 354 354 352 352 352
314 314 314 314 315 314 314 314 313 314 313 313 313 311 312 314 313 313 312 312 312 313 314 315 316 316 317 316 315 316 319 323 326 328 328 325 320 316 319 323 343 353 352 351 350 348 349 348 351 350 350 354 356 355 355 353 352 355 356 357 357 357 357 357 358 357 358 358 359 359 357 359 358 358 360 361 363 361 362 359 358 360 356 352 351 351 352 350
314 314 314 314 314 314 313 313 312 313 313 313 313 311 312 314 313 313 312 313 312 313 314 315 316 316 317 315 315 317 321 327 329 330 330 332 325 315 320 329 343 352 352 350 348 348 348 349 352 351 353 357 357 356 358 355 355 356 356 358 358 357 357 357 357 358 358 356 358 358 358 360 358 359 360 360 362 362 362 358 357 358 355 352 349 350 351 350
313 314 313 314 314 314 313 312 312 313 313 313 312 311 312 313 312 312 312 313 312 313 313 314 316 316 316 315 316 320 325 325 327 333 329 334 328 315 322 334 344 352 352 348 348 348 349 350 351 351 355 358 358 358 359 355 355 358 358 358 358 357 357 358 358 358 358 356 357 358 359 359 358 359 360 360 362 362 359 356 355 355 353 352 350 350 351 350
313 313 313 313 314 313 313 312 312 312 312 312 311 311 313 312 310 310 312 313 313 313 313 314 315 315 315 316 318 321 328 320 326 332 328 334 327 315 325 338 347 353 351 349 349 349 348 348 350 355 356 356 359 359 356 356 356 359 358 356 358 357 359 359 358 358 356 356 358 358 359 358 358 360 359 360 361 359 355 354 354 354 354 353 352 350 349 348
312 313 313 313 313 312 312 312 311 311 311 311 311 311 312 310 309 309 311 313 313 313 313 314 314 314 314 318 320 323 326 321 331 333 331 333 323 317 332 343 351 353 350 349 347 346 346 349 353 356 357 357 358 357 357 357 357 360 360 357 359 359 359 358 356 356 355 354 355 356 358 358 359 359 359 359 358 354 353 352 353 354 354 353 352 350 349 348
312 312 312 312 312 312 312 311 311 311 311 311 310 311 312 309 309 309 311 313 313 313 313 314 315 313 314 321 326 327 324 326 336 336 332 327 320 325 341 349 354 353 348 348 346 345 347 351 354 353 357 357 355 356 358 359 360 361 359 358 360 359 359 356 354 355 354 353 354 355 358 358 358 358 359 359 356 353 351 351 352 352 352 352 351 351 351 349
312 312 312 312 311 311 311 311 311 311 311 310 310 312 311 308 309 310 311 313 313 314 314 314 315 312 316 322 326 323 327 331 336 339 331 323 328 342 351 354 354 351 347 347 344 344 348 351 352 353 356 355 354 356 357 359 359 358 357 357 360 360 359 357 356 357 354 354 355 357 360 359 357 358 359 358 356 355 352 350 352 352 351 352 351 350 351 349
311 311 311 311 311 310 310 311 310 310 310 309 310 311 309 308 309 309 310 311 314 315 314 314 312 312 319 324 325 322 329 334 339 338 330 330 343 351 353 353 352 349 346 346 344 344 346 350 351 350 353 354 354 355 355 357 354 354 355 357 360 360 360 358 357 358 357 356 356 357 360 359 356 360 362 357 354 354 353 351 351 351 351 351 351 349 349 348
311 311 311 311 310 310 310 311 310 310 310 310 310 310 308 308 309 309 310 311 314 316 316 316 312 312 321 323 323 322 325 333 340 334 331 341 350 352 352 352 350 347 344 344 343 342 345 352 352 350 354 355 355 356 354 353 352 353 356 359 360 359 361 360 358 360 359 357 355 356 360 359 357 361 363 357 351 353 353 353 350 349 350 349 350 348 347 346
310 310 310 310 309 309 310 310 310 310 310 310 310 309 308 308 309 311 312 313 315 316 316 315 312 315 323 323 320 320 322 333 338 333 337 347 351 352 351 349 347 344 343 344 342 342 348 352 352 353 355 355 358 360 354 350 351 354 356 360 363 363 363 361 360 360 360 358 355 356 357 358 362 360 357 355 351 353 352 352 350 349 350 348 347 346 346 346
310 310 310 309 309 309 309 309 309 309 309 309 310 309 308 309 311 313 315 316 316 316 315 313 314 318 324 323 320 322 326 336 336 335 342 348 351 350 348 347 345 342 342 342 342 344 349 354 353 353 354 355 359 358 353 351 351 355 358 359 360 359 360 362 361 360 360 358 357 358 353 353 363 358 353 353 351 353 352 351 351 348 349 349 347 345 347 348
310 310 309 309 309 309 309 309 309 309 309 309 309 307 309 311 315 316 317 318 316 316 315 313 318 321 323 318 324 326 332 340 337 338 344 348 349 346 343 344 342 342 344 343 344 346 348 354 354 353 353 354 357 355 354 354 352 356 355 355 355 344 349 362 360 360 361 356 360 363 351 351 362 358 353 353 351 354 353 351 350 349 350 350 349 347 348 349
310 310 309 309 309 309 309 309 308 308 309 309 308 307 311 315 317 317 317 317 316 316 315 316 320 325 322 319 331 331 334 341 341 340 346 349 346 342 341 342 343 344 346 346 347 348 348 352 353 355 355 352 354 355 357 356 354 356 343 340 345 339 348 365 358 359 362 356 361 362 352 351 360 358 354 353 352 355 355 353 350 350 350 349 350 348 347 348
310 309 309 309 308 308 309 308 308 308 308 308 307 309 314 317 318 317 315 315 315 316 319 323 324 325 322 323 335 335 336 342 343 343 347 349 343 340 342 343 345 346 346 346 348 348 348 351 351 352 352 351 353 356 358 348 343 352 341 331 336 336 344 360 359 358 360 358 359 359 357 356 356 357 355 353 353 355 356 355 351 349 350 349 350 349 347 347
309 308 309 308 308 308 308 308 308 308 308 308 308 313 316 317 318 317 316 316 317 319 323 326 323 324 323 323 331 335 336 340 344 345 347 347 342 341 343 344 346 347 346 345 345 345 347 349 349 350 351 351 352 355 350 334 328 339 341 333 336 339 339 348 358 359 357 360 360 358 360 358 354 355 355 354 353 354 357 357 353 349 349 349 349 348 348 348
309 309 309 308 307 308 308 309 308 308 308 308 310 315 317 316 318 320 321 321 321 322 324 323 321 321 319 319 324 331 337 339 344 347 345 346 343 342 344 344 344 345 345 345 345 345 345 347 350 351 352 351 353 352 340 331 331 335 336 333 334 338 336 340 352 357 357 361 361 357 357 358 356 355 354 354 355 356 357 356 353 350 349 350 349 348 348 348
309 309 308 308 308 308 309 309 308 308 307 308 311 317 320 318 319 323 323 324 324 322 323 323 320 316 315 318 320 328 336 339 342 343 343 345 342 342 343 343 343 343 343 344 346 347 347 349 349 347 347 348 353 351 343 341 344 342 340 338 333 333 335 340 351 355 357 361 362 359 355 355 356 356 355 355 356 359 358 356 354 351 349 350 349 348 348 348
309 309 308 308 308 308 309 308 308 307 307 309 311 318 325 325 327 326 323 323 322 318 319 320 318 316 318 320 324 331 336 339 339 340 341 341 340 341 340 339 341 340 339 341 343 344 344 346 347 345 345 349 351 350 349 349 349 348 346 340 336 333 333 343 356 354 354 356 358 359 356 354 354 355 355 355 357 359 358 357 356 352 349 350 349 348 349 349
309 308 308 308 308 308 308 308 307 307 308 309 311 319 324 324 324 324 323 322 320 319 319 319 319 318 320 323 329 333 334 335 337 337 338 337 338 339 336 338 338 336 337 336 338 340 341 341 342 345 348 348 349 348 348 349 349 349 345 337 334 333 336 348 357 352 353 355 354 357 357 355 354 354 354 355 355 357 358 357 356 354 350 350 350 348 349 348
308 308 309 308 308 308 308 308 307 307 308 310 313 319 320 320 320 320 321 322 322 321 319 319 319 319 319 322 324 325 325 330 335 336 335 335 334 335 335 336 335 336 337 334 336 340 339 339 342 345 347 346 347 347 347 349 349 347 343 335 329 331 339 349 357 356 353 354 356 358 356 355 355 354 353 354 355 355 355 355 355 354 352 350 349 348 348 347
308 309 308 308 309 308 308 308 307 308 309 313 317 319 319 319 317 318 320 323 324 323 321 320 319 319 319 320 322 322 322 328 335 335 334 333 331 331 333 333 333 336 336 334 337 336 332 338 345 344 345 347 346 347 347 347 346 345 340 329 325 332 334 335 350 361 355 354 358 359 356 355 356 354 354 354 354 355 353 354 355 353 352 351 349 348 346 345
309 309 308 309 309 308 309 307 309 311 312 315 317 316 317 316 317 318 321 324 324 324 323 322 321 320 321 322 322 322 322 324 332 335 333 331 329 329 331 331 333 336 336 337 339 337 335 340 345 344 345 347 345 346 348 343 338 340 340 331 327 334 333 334 350 361 356 354 358 358 350 351 356 355 356 355 354 354 354 354 355 354 353 350 348 348 346 345
308 308 309 309 309 309 308 309 313 315 314 315 315 315 315 315 317 318 322 325 321 322 323 322 323 322 322 324 322 322 323 322 326 334 334 331 329 329 332 332 332 335 337 338 340 340 340 341 342 344 345 345 345 345 345 342 334 332 339 338 333 336 338 344 354 353 344 342 352 353 338 338 350 354 355 355 356 356 355 354 355 355 354 351 349 348 347 345
308 309 309 309 309 309 309 314 317 313 314 316 316 316 315 316 317 316 323 323 316 320 322 321 322 322 322 323 323 322 321 320 324 332 334 332 330 330 332 333 333 336 337 339 340 340 340 341 342 343 344 344 344 343 344 345 333 326 334 339 338 339 340 345 349 342 331 333 351 353 335 328 336 347 354 355 357 358 355 355 354 355 356 353 351 349 347 346
308 309 309 309 309 308 312 317 315 312 316 317 317 316 315 316 316 317 323 315 311 320 322 319 319 321 322 322 323 321 318 319 324 331 334 333 331 330 332 334 334 333 337 338 333 335 341 342 341 343 344 343 341 339 343 344 332 327 336 339 339 340 341 344 345 337 332 336 346 350 341 329 325 337 353 354 357 360 358 356 355 354 356 354 352 351 348 346
308 308 308 309 308 307 311 313 312 314 316 316 316 315 315 316 316 321 322 312 312 323 322 320 319 320 322 323 322 320 319 320 323 329 334 333 332 331 331 334 334 333 337 335 326 331 341 341 340 342 341 339 339 340 341 340 334 333 338 338 340 344 343 344 341 335 336 335 331 337 342 331 323 333 353 355 352 357 358 359 357 354 355 355 353 352 349 347
308 308 308 308 307 307 309 309 312 315 315 314 315 315 315 316 319 325 321 316 319 323 321 320 320 320 322 323 322 321 321 321 323 328 332 332 331 332 332 333 333 332 335 334 329 333 338 336 336 337 337 338 338 339 338 337 337 337 337 337 340 344 344 345 340 332 332 332 325 328 334 328 322 328 344 349 345 348 356 357 357 355 355 356 354 352 351 349
308 308 308 307 308 309 309 309 312 313 313 313 314 314 316 319 323 320 314 318 323 320 320 320 320 321 322 322 322 321 321 321 326 330 330 330 331 331 332 331 333 334 335 335 333 334 335 334 335 334 334 335 335 336 335 334 336 335 336 336 335 339 343 344 340 333 330 329 325 324 331 330 322 322 335 345 344 346 351 352 353 355 354 355 354 352 351 350
311 311 309 308 310 311 313 316 314 312 312 312 313 317 319 323 324 316 312 319 322 318 320 320 320 322 322 322 321 321 321 323 328 330 329 330 330 331 331 329 331 331 331 332 332 334 334 332 334 332 331 332 332 333 333 334 335 334 336 334 327 328 333 333 333 333 328 325 324 325 331 331 321 322 334 346 346 344 346 349 352 354 354 354 354 352 352 351
314 313 312 310 310 311 315 317 314 312 312 312 315 321 323 320 317 314 316 319 317 317 321 320 321 323 321 321 321 321 321 323 327 329 329 328 328 331 330 329 330 325 320 323 326 328 330 331 331 330 330 331 330 329 331 334 335 336 333 327 322 321 324 324 325 325 322 320 324 327 330 328 323 327 339 345 346 345 344 346 350 352 353 354 354 353 352 351
315 314 313 312 310 311 313 314 312 312 313 314 319 324 324 317 312 314 318 317 314 316 319 320 321 323 322 321 320 321 320 322 326 328 327 327 327 329 329 329 330 325 320 321 319 318 321 326 329 328 328 329 329 326 325 329 334 334 328 322 321 321 323 324 322 321 320 319 323 329 331 325 321 329 343 344 343 346 344 346 348 351 352 353 353 352 352 351
316 315 313 312 311 311 312 312 312 313 314 317 322 323 320 314 314 318 318 316 317 317 318 319 320 322 323 321 320 320 319 321 326 327 326 326 324 325 327 327 328 329 326 320 317 315 314 316 322 325 325 327 330 328 328 332 333 333 334 330 322 320 324 325 321 320 321 318 320 329 330 320 317 329 342 341 341 343 344 345 347 349 351 352 352 351 351 352
317 316 315 314 313 312 312 312 313 314 315 322 324 321 315 313 316 319 317 316 318 318 318 319 319 319 320 322 321 320 319 319 323 326 327 326 322 323 325 325 327 331 327 318 316 317 312 313 322 326 326 327 329 330 333 333 329 333 336 331 322 324 327 323 320 321 321 318 320 322 323 324 327 337 341 341 341 340 342 346 347 348 350 351 350 351 351 352
318 318 317 319 317 315 314 312 313 314 318 324 322 317 315 316 319 319 318 318 318 318 318 318 319 316 316 320 321 321 319 319 322 322 323 325 324 323 325 327 328 330 327 321 318 317 311 313 324 327 326 329 329 330 334 331 327 331 329 323 328 334 331 321 319 322 320 319 322 319 317 323 329 333 338 343 342 341 344 345 346 348 350 351 350 350 350 351
321 322 321 321 318 316 314 313 315 316 320 324 320 317 319 320 319 319 319 318 317 319 318 315 317 316 314 316 318 320 319 319 320 318 318 321 322 323 325 326 327 328 327 324 321 321 315 313 323 328 324 326 328 328 333 333 331 331 326 327 334 337 333 326 321 322 321 319 321 317 314 317 317 322 334 341 341 342 344 345 347 348 350 351 351 350 350 350
323 325 323 320 317 315 315 315 317 320 322 323 320 320 321 320 319 318 318 318 318 321 319 315 316 319 317 315 316 320 319 316 317 317 316 318 318 321 325 325 326 328 327 325 322 324 320 312 318 327 325 325 328 326 326 331 333 334 333 335 332 325 324 325 321 321 323 322 319 315 315 315 313 318 327 334 339 343 344 345 347 349 349 350 349 350 351 351
323 326 324 320 316 315 316 317 320 324 322 321 320 320 320 319 319 318 318 320 321 321 320 317 317 319 319 319 318 321 319 315 317 317 315 317 317 320 325 324 326 326 325 326 323 324 324 314 313 323 327 325 326 323 320 324 331 333 333 335 333 326 325 325 322 320 322 324 320 315 314 314 318 325 329 334 338 342 345 346 347 347 348 348 348 349 352 352
325 325 323 320 318 317 317 319 323 323 322 321 320 320 320 318 319 320 321 323 324 323 322 321 320 319 320 322 320 321 320 318 319 317 315 318 318 318 322 323 324 325 324 325 324 323 324 318 312 319 326 321 320 323 323 324 329 328 325 325 326 327 326 326 324 319 321 323 322 321 316 314 323 333 335 337 338 339 344 347 347 347 346 346 347 349 353 354
326 325 323 321 318 318 319 323 324 322 321 321 320 320 321 321 321 322 323 325 326 325 324 323 323 321 321 321 320 322 322 319 319 319 318 319 317 317 321 322 323 323 323 324 324 323 322 319 314 314 316 315 318 327 329 329 331 330 327 325 325 328 326 321 320 320 318 318 320 323 317 315 327 337 337 338 340 340 342 345 346 344 344 347 347 351 357 357
327 327 325 321 319 319 323 326 323 322 321 322 323 323 325 327 326 325 326 327 326 325 324 323 323 323 322 322 321 322 323 321 320 319 318 320 320 319 321 322 322 323 323 323 324 324 324 322 315 312 315 319 324 329 327 326 329 329 330 332 332 332 324 316 316 319 318 317 318 319 315 319 333 339 337 338 342 342 343 345 345 341 344 349 350 354 361 360
329 328 324 320 319 320 325 326 323 323 323 326 327 326 327 328 327 327 328 328 327 326 325 323 322 322 322 322 321 322 322 320 321 321 321 322 322 322 322 321 321 322 323 322 323 324 325 322 315 313 318 322 324 326 326 326 326 323 327 331 330 328 325 321 322 323 321 318 316 315 314 321 336 342 341 342 343 341 341 344 347 346 348 352 355 360 365 362
327 327 325 322 320 322 327 328 327 327 327 328 327 326 327 328 328 329 329 329 329 328 326 326 325 323 322 322 322 322 321 319 319 321 322 323 323 323 323 321 321 322 322 322 323 323 321 320 317 313 314 316 317 320 321 322 323 323 326 331 330 329 328 327 326 326 322 317 318 318 315 321 337 347 344 340 340 343 343 343 348 351 351 354 360 366 369 366
326 328 327 324 323 324 328 330 329 330 329 328 327 326 328 328 328 329 328 329 329 328 328 329 326 325 325 324 323 324 322 320 320 321 321 322 322 323 322 321 322 321 321 327 329 323 321 322 319 313 311 312 312 313 315 318 322 324 326 329 330 330 328 323 320 320 319 318 319 320 318 324 337 345 339 335 337 343 345 344 346 350 352 357 363 366 368 368
325 329 330 328 326 326 327 328 328 330 330 328 327 328 328 329 329 327 327 328 328 328 328 328 326 326 325 325 325 325 325 324 322 322 324 326 326 327 326 325 323 321 327 338 336 325 322 324 322 317 313 313 313 317 323 325 321 320 323 327 329 330 329 325 320 317 319 321 321 324 325 324 331 337 336 335 335 338 343 344 347 351 354 358 363 364 366 368
323 327 328 328 329 329 329 329 328 329 330 328 329 330 329 330 330 327 327 327 327 328 328 326 327 328 327 327 326 324 326 328 325 326 331 332 331 331 328 325 324 329 337 337 329 324 322 320 322 322 318 318 320 323 327 327 321 319 321 324 326 329 329 325 320 322 326 323 320 330 332 325 328 338 335 335 336 335 341 346 348 353 357 358 362 362 363 366
322 324 322 321 326 330 330 329 328 328 329 328 329 330 330 330 330 329 327 327 328 328 329 329 329 329 329 330 327 325 329 329 328 331 335 334 334 333 327 323 324 330 333 326 322 327 323 317 320 322 318 321 324 324 324 325 323 323 323 322 323 326 326 323 323 329 331 323 321 333 337 330 333 337 333 336 338 337 342 349 350 353 356 358 361 361 361 364
320 321 319 318 321 325 326 325 326 327 329 329 330 331 331 330 330 328 326 327 329 329 329 331 331 329 330 330 327 330 333 328 329 335 337 335 335 335 330 328 326 327 326 322 324 327 322 319 323 323 318 320 323 323 324 323 322 322 322 324 324 325 325 325 326 331 333 328 330 336 336 335 339 337 336 340 341 339 345 349 348 351 355 357 359 359 360 362
318 318 319 319 320 322 323 323 325 326 328 330 331 331 329 329 329 327 326 327 330 331 328 328 329 328 330 331 329 332 332 328 330 335 334 333 336 336 333 332 332 331 328 326 327 327 322 322 328 325 316 317 321 324 324 323 321 319 320 324 325 324 324 324 325 328 329 329 333 334 330 333 339 339 342 347 346 345 349 350 349 350 353 355 358 360 361 362
317 316 316 319 322 324 324 323 323 324 326 328 329 329 328 328 327 325 326 326 327 329 327 325 327 328 331 333 331 329 328 326 328 330 329 330 332 333 334 333 334 335 335 334 332 329 325 324 329 325 314 312 319 322 321 323 322 317 317 321 324 323 322 323 325 328 326 326 330 328 323 331 341 345 348 350 349 348 348 349 350 349 349 354 359 361 361 360
316 316 315 318 323 323 322 322 322 323 325 326 326 326 325 325 324 324 327 328 326 326 325 324 325 328 332 333 330 327 325 325 326 327 327 328 328 329 331 331 331 333 336 338 334 331 329 325 324 322 313 311 319 321 320 320 315 312 316 322 324 324 325 326 328 331 332 331 329 325 326 339 348 346 344 344 346 349 349 349 351 349 350 354 356 356 356 354
Wind_Speed
15 14 14 15 16 15 15 15 16 16 15 16 15 14 15 14 13 14 14 13 13 13 12 12 12 12 11 10 9 7 7 6 6 8 12 10 9 9 12 22 28 31 28 24 22 21 17 14 13 13 11 7 5 4 5 4 3 3 1 3 3 3 3 4 5 6 7 8 7 5 6 8 6 5 5 6 7 8 10 8 6 7 4 8 15 21 23 23
15 15 14 14 16 15 16 16 16 16 16 16 15 14 15 14 13 14 14 13 13 13 12 13 12 12 11 10 8 7 7 8 10 12 16 12 9 10 18 26 31 34 29 25 25 23 18 14 15 14 9 5 3 4 4 4 4 4 3 4 3 2 4 6 7 8 8 9 9 9 7 8 5 5 6 7 10 11 11 9 8 9 10 13 18 21 23 23
16 16 15 15 16 16 16 16 16 16 16 16 15 14 15 14 14 14 15 13 14 13 12 13 12 12 11 9 8 6 7 9 10 9 7 6 10 15 23 30 32 34 27 23 24 21 17 16 18 14 7 4 3 4 4 4 3 3 3 4 2 4 6 6 7 9 8 9 10 9 5 6 4 5 6 8 11 13 11 10 11 11 13 16 17 20 22 22
16 16 16 15 16 16 16 16 16 16 16 16 16 15 15 14 14 14 15 14 13 13 13 12 12 12 10 8 5 5 7 9 4 5 3 7 7 21 27 33 34 32 23 19 19 14 13 17 17 12 6 4 4 4 4 4 3 1 3 5 6 6 6 4 6 8 8 8 9 8 5 5 5 5 5 9 12 11 10 10 12 13 16 18 18 19 20 21
16 16 17 16 16 16 16 16 17 17 16 17 16 15 15 14 14 15 15 14 14 13 13 12 12 11 9 6 3 4 6 5 3 8 3 12 8 25 30 35 34 30 21 17 17 12 13 16 14 9 5 3 4 5 3 5 5 3 5 7 7 6 7 4 6 7 6 8 8 6 6 4 7 6 7 12 11 8 9 10 11 13 16 18 19 18 18 19
17 16 17 17 16 17 17 17 18 17 17 17 16 16 16 15 14 15 15 15 14 13 12 12 12 11 7 5 3 4 5 2 4 1 12 11 15 30 34 36 33 26 20 18 16 13 14 14 11 7 5 4 3 3 1 5 6 4 4 5 5 5 6 5 5 5 6 7 5 4 3 5 9 7 8 11 8 7 9 9 11 13 14 17 18 18 17 18
17 17 17 17 17 17 17 18 18 18 18 17 17 16 15 15 14 15 15 15 14 13 12 11 11 8 4 3 3 5 8 4 5 10 15 5 26 34 36 36 31 24 20 20 17 14 13 13 10 5 5 3 1 3 1 3 7 5 5 4 3 3 4 4 4 3 5 5 1 2 2 6 10 9 7 8 8 8 9 8 12 13 14 16 16 16 16 16
17 17 17 17 18 18 18 18 18 18 18 17 17 16 16 15 15 15 15 15 14 13 12 11 10 5 2 2 5 6 7 4 9 14 6 19 33 37 37 33 28 23 21 20 17 14 12 12 10 5 4 1 1 2 2 3 7 7 6 4 2 2 2 3 2 3 5 4 1 2 4 7 9 10 8 8 8 9 8 9 13 13 14 14 14 15 15 14
17 18 18 17 18 18 19 18 19 19 18 17 17 17 16 15 16 16 16 16 15 14 12 10 8 3 1 2 7 6 1 6 10 6 10 29 34 37 35 28 26 23 20 19 16 14 11 9 9 5 2 2 1 3 2 3 2 3 6 5 3 2 1 2 1 3 4 2 1 4 5 6 9 9 7 7 8 8 8 11 13 14 15 13 12 14 14 14
17 18 18 18 18 19 19 19 19 19 18 18 18 17 16 16 17 17 17 17 15 14 11 9 5 1 1 4 7 4 4 8 6 7 18 29 32 34 29 24 25 22 19 17 16 15 9 5 6 4 3 2 3 5 3 4 4 4 6 4 4 2 1 1 1 3 2 2 1 2 4 6 7 6 4 7 11 10 10 13 13 14 14 13 12 12 13 13
17 18 18 18 18 19 19 19 20 19 18 18 18 17 17 17 18 18 18 17 16 14 10 7 2 4 4 6 7 2 7 6 4 12 20 28 31 30 24 21 23 20 17 15 15 14 8 3 3 3 2 2 4 6 3 4 7 5 6 3 4 3 2 3 2 3 3 2 2 2 2 5 6 5 7 11 13 12 12 13 14 13 13 13 13 12 10 10
18 18 18 18 19 20 19 20 20 19 19 19 19 18 18 19 19 19 17 16 15 11 7 3 4 5 5 6 6 3 7 4 7 14 20 26 27 23 17 18 21 17 14 13 13 12 7 2 3 4 2 4 6 5 3 6 7 5 6 5 4 4 3 4 3 2 3 2 1 2 2 4 4 6 12 13 12 12 11 12 13 13 12 12 13 11 9 10
18 18 18 19 20 20 20 21 20 20 19 19 19 18 19 20 19 17 15 13 10 6 3 4 7 5 6 5 1 3 4 3 10 17 21 23 21 16 13 16 18 13 11 11 10 10 6 2 4 6 5 6 6 5 7 8 7 5 5 4 2 3 2 4 4 3 4 2 2 2 2 5 4 8 13 12 11 11 11 11 11 11 11 11 11 11 10 10
19 18 18 20 20 20 20 21 21 20 20 20 19 18 20 19 16 13 11 9 6 4 3 7 7 5 6 2 4 3 2 7 13 19 21 21 19 14 14 17 15 10 9 9 8 9 7 3 4 7 5 6 6 7 10 8 5 5 3 2 2 1 4 4 5 4 3 1 2 3 2 5 5 8 11 11 11 11 10 11 11 10 10 11 10 10 11 11
18 18 19 20 20 20 21 21 21 20 20 20 19 19 18 13 10 9 7 5 4 5 7 7 6 5 5 3 4 4 6 10 14 19 20 21 18 15 17 17 13 10 8 8 6 7 8 6 5 7 5 5 7 8 9 6 5 5 4 1 3 5 6 6 5 4 3 2 3 4 2 3 4 8 10 10 11 10 10 10 11 11 12 12 11 11 11 11
19 20 20 20 20 21 21 21 21 21 20 19 19 17 12 7 7 5 2 2 6 10 8 4 6 6 6 1 5 4 7 9 13 17 17 18 16 15 19 17 12 10 8 7 5 5 7 7 7 7 6 6 7 7 7 5 3 2 3 4 7 7 5 6 3 3 4 3 2 3 1 1 3 7 9 10 11 10 9 10 12 12 13 12 11 11 11 11
19 21 21 21 21 21 21 21 21 21 20 19 18 11 4 3 5 5 7 8 8 8 5 3 3 6 4 2 4 4 7 8 13 16 15 15 13 16 19 14 11 10 8 7 5 6 7 7 6 6 6 6 5 6 5 2 3 2 4 5 6 7 5 4 3 4 4 2 2 1 2 1 3 7 9 10 11 11 9 10 12 12 12 12 11 11 11 11
20 20 21 22 23 21 21 21 21 20 19 19 13 4 3 4 5 5 6 6 5 4 5 4 3 5 4 6 4 4 9 11 14 15 15 14 12 18 18 10 10 11 8 7 7 7 7 6 6 5 5 6 5 6 4 4 6 6 6 6 5 6 6 5 5 7 7 4 3 4 5 4 5 7 9 10 10 10 9 9 11 12 12 12 11 11 11 11
20 20 21 24 24 22 21 20 21 20 19 17 7 2 2 3 2 2 4 5 5 4 2 4 6 2 2 8 5 7 9 12 14 14 15 14 14 18 15 8 10 11 8 6 7 8 6 4 6 5 4 5 3 4 5 7 8 10 8 7 6 5 5 7 7 9 10 7 6 7 7 6 7 9 10 10 10 9 8 8 10 11 12 11 11 11 11 12
21 21 23 24 24 23 20 21 21 19 19 16 8 2 3 2 4 5 7 8 8 5 3 3 7 0 5 8 8 10 11 13 12 13 16 16 16 17 12 9 10 9 8 6 6 7 6 6 7 6 5 4 1 3 7 8 9 10 9 7 6 5 5 6 7 10 10 7 7 9 8 8 8 10 11 11 11 10 9 9 10 11 11 11 12 12 12 12
22 23 23 23 24 23 21 22 20 19 19 14 6 5 3 2 3 1 3 8 12 11 7 3 4 3 2 5 7 9 8 9 9 12 16 16 16 15 10 10 10 8 9 9 4 4 5 7 8 7 6 5 3 5 8 9 9 9 8 6 4 4 5 5 5 10 11 6 5 8 9 8 8 9 10 11 12 12 11 11 11 12 12 11 12 13 13 12
23 23 23 23 23 23 23 22 20 20 16 6 7 8 3 5 3 3 3 5 9 12 12 8 7 6 4 3 3 2 2 7 10 12 16 16 15 12 10 11 10 9 10 10 6 4 7 8 9 7 4 5 7 8 9 9 9 7 6 5 3 4 4 4 5 8 10 5 3 7 8 8 9 10 11 13 12 11 11 11 12 13 12 12 12 13 13 13
24 23 23 23 22 22 23 22 19 16 8 6 8 8 3 3 4 4 5 5 3 9 11 11 11 9 9 7 6 6 5 7 10 13 17 16 14 10 10 12 11 9 10 11 9 6 6 4 3 3 3 6 8 7 8 8 7 5 4 4 4 6 5 2 3 6 9 5 3 6 6 5 7 9 11 13 12 10 11 12 12 12 13 13 13 13 14 15
25 23 23 22 22 22 22 21 15 8 7 8 10 9 4 3 5 5 5 5 3 6 6 8 10 10 10 5 7 11 8 5 7 13 18 16 12 9 10 12 11 10 9 11 13 10 8 2 3 1 1 4 6 5 7 6 4 3 3 5 6 7 7 4 3 5 8 7 6 5 3 4 7 9 10 11 12 11 11 12 13 13 13 14 14 14 15 15
25 23 22 21 21 21 20 15 6 3 4 8 10 9 5 2 3 5 4 5 4 4 4 6 6 8 9 5 8 10 7 6 6 11 17 17 13 9 8 8 8 10 11 12 12 10 10 6 5 7 6 6 8 7 6 5 4 3 2 6 9 9 7 4 4 5 5 5 7 8 3 3 8 10 10 10 12 13 13 13 14 14 14 14 14 14 15 15
26 24 22 20 19 19 15 6 2 2 4 6 4 4 4 2 4 4 4 4 4 5 6 6 5 7 9 8 10 8 6 8 7 12 18 16 13 8 7 7 6 8 9 9 8 7 8 7 7 9 10 10 10 8 4 3 6 3 4 8 11 9 6 2 3 4 2 1 5 8 4 1 7 10 12 12 13 15 15 15 16 14 14 15 14 14 15 15
27 25 22 17 16 14 8 2 1 3 4 2 3 3 3 3 4 3 4 4 4 4 5 4 2 6 7 9 14 8 3 8 9 13 16 15 12 7 7 9 7 7 5 5 6 5 7 9 8 9 10 9 8 6 2 2 8 2 7 9 11 10 6 1 3 4 3 2 4 8 5 3 3 8 12 14 14 15 16 16 16 15 16 16 16 16 16 16
29 25 20 15 13 10 6 4 4 4 2 2 3 3 1 4 3 4 5 3 4 2 3 4 2 4 4 8 16 9 3 10 10 12 16 16 13 7 9 11 10 9 8 7 7 3 4 7 6 7 9 8 7 5 2 4 8 3 8 9 8 8 6 1 4 4 1 3 3 6 6 5 2 6 9 12 14 14 17 18 17 18 18 18 17 18 18 17
29 24 19 13 11 10 9 8 7 5 2 1 5 2 2 3 3 4 5 1 3 1 2 4 4 5 6 9 15 11 4 5 5 9 16 16 13 7 7 9 10 10 10 10 11 4 4 2 2 3 6 5 4 5 5 6 6 4 6 8 6 5 5 3 5 3 2 4 2 4 6 5 2 7 7 9 11 13 15 15 16 18 18 18 18 18 18 17
27 22 16 9 7 6 8 10 12 7 3 5 5 2 3 4 4 5 4 1 2 2 3 4 5 7 10 11 12 13 9 4 4 10 13 11 12 9 4 3 7 8 8 10 13 10 5 3 3 6 6 5 6 7 6 6 7 7 6 7 7 5 4 3 3 3 4 4 2 3 4 5 2 5 6 6 8 10 11 13 16 18 19 19 18 17 18 16
23 19 11 8 7 7 8 5 6 7 6 6 2 3 5 4 4 5 3 2 1 3 4 6 6 8 13 13 11 12 11 6 9 13 11 9 11 11 6 4 6 7 7 8 10 12 12 10 8 8 7 7 9 9 8 7 6 6 5 4 6 4 2 3 3 3 4 2 3 2 2 5 4 3 5 5 6 7 8 12 17 19 20 19 17 17 17 16
17 14 6 9 11 10 7 1 2 6 7 4 2 4 5 5 5 2 3 2 2 2 3 5 6 8 13 13 11 13 11 7 10 13 11 11 11 10 10 9 7 8 9 8 9 10 11 12 11 9 8 9 10 8 7 7 6 6 5 3 4 3 2 3 3 3 2 3 3 1 2 5 5 1 1 4 6 6 6 8 14 18 19 19 18 17 16 16
12 11 3 8 12 11 8 3 5 8 6 2 4 5 5 4 3 2 3 2 1 3 1 3 6 8 10 11 10 13 12 8 11 13 12 13 12 11 14 13 11 10 8 7 8 8 7 10 12 11 8 9 10 8 6 6 6 7 5 2 3 3 3 3 2 1 1 3 3 1 2 4 4 3 3 3 4 5 6 7 10 15 18 18 18 18 16 17
10 12 8 6 8 9 8 6 7 6 2 5 5 6 6 3 3 2 3 5 5 3 0 2 5 7 9 9 9 14 12 7 11 12 11 12 11 11 13 15 16 13 7 6 6 6 7 6 9 11 7 9 12 11 8 5 4 5 3 1 3 3 4 3 1 2 3 2 1 1 2 3 1 4 5 5 5 4 6 8 8 11 16 17 17 18 17 17
8 10 10 8 5 4 7 8 7 4 3 5 5 5 5 1 3 2 3 5 4 3 2 2 6 7 8 7 8 14 12 6 10 11 9 11 11 10 12 13 16 13 9 7 3 5 8 4 5 9 5 6 12 13 11 9 6 4 3 3 3 3 4 5 5 4 5 5 2 1 2 2 2 2 3 5 6 5 7 10 9 10 14 16 16 17 17 16
4 6 6 5 2 1 5 8 6 3 4 5 6 5 1 2 3 3 4 5 5 6 5 3 8 7 8 6 7 14 13 8 10 10 8 10 11 12 13 11 15 16 11 8 3 4 7 4 7 8 5 7 10 9 10 10 6 3 5 5 2 2 5 7 4 3 4 4 2 2 2 1 2 3 6 6 7 8 9 12 12 11 13 15 15 16 17 16
2 1 4 4 2 1 4 6 4 2 5 6 5 2 1 2 3 4 5 6 6 6 8 3 5 5 7 7 7 13 14 9 10 10 7 9 10 12 14 11 13 18 16 11 6 4 6 4 7 9 8 9 7 5 7 10 8 3 3 3 4 3 4 5 2 2 4 3 3 3 2 0 2 3 5 6 8 10 11 12 13 12 13 14 14 14 16 16
4 2 4 7 6 4 6 3 1 4 5 6 5 1 1 1 2 4 5 7 6 6 7 2 1 2 5 7 7 13 14 10 10 10 7 8 7 10 14 12 11 16 19 15 9 3 4 5 4 9 9 7 6 6 6 9 10 7 3 2 2 3 3 2 3 3 3 3 2 3 1 1 2 2 2 3 6 10 11 12 13 14 14 14 14 15 16 16
5 4 3 6 5 3 3 1 3 5 5 5 5 2 2 2 2 4 5 5 6 5 5 3 2 2 3 4 6 12 15 12 10 10 8 7 6 8 12 12 11 15 17 16 11 4 4 6 4 8 7 5 6 7 7 7 9 9 6 4 4 2 2 3 3 2 1 3 2 2 2 3 3 3 4 2 2 8 11 11 12 14 15 14 13 14 14 14
5 3 3 3 4 3 4 4 4 6 5 4 3 1 0 2 3 4 4 3 5 4 4 4 2 2 1 1 4 9 12 12 10 9 8 8 7 6 9 11 11 13 16 17 14 8 5 6 5 5 6 5 6 8 10 8 9 10 8 7 6 3 1 1 3 4 4 4 3 1 2 3 6 6 6 5 2 5 10 12 12 12 14 14 13 13 13 13
5 2 4 1 4 5 5 5 5 4 5 3 2 1 1 3 5 6 4 3 5 4 4 6 6 4 3 2 4 6 9 10 10 9 7 9 9 6 8 13 12 12 14 15 13 10 6 6 7 4 5 8 8 8 9 7 4 7 8 8 8 5 4 4 5 6 6 5 3 2 3 2 7 5 5 5 5 2 6 10 10 11 13 13 12 13 13 12
4 1 4 1 3 4 4 5 3 2 4 1 2 2 2 3 5 5 3 3 4 4 4 5 6 5 4 3 1 3 7 8 9 9 7 9 11 8 8 13 13 11 11 11 12 12 8 5 8 8 5 7 6 5 5 5 6 6 6 7 7 7 8 7 5 6 6 6 5 4 4 1 3 3 5 4 4 3 3 4 8 11 11 12 12 13 13 12
1 2 4 1 2 4 5 4 3 3 3 1 2 3 3 3 4 4 3 3 3 3 3 4 5 4 2 2 2 3 6 7 8 9 8 8 11 8 7 11 12 12 10 10 11 12 9 6 7 7 6 8 7 4 6 6 6 7 6 6 7 6 7 7 5 4 5 6 6 5 4 3 3 1 3 3 3 2 2 1 5 9 9 11 12 12 11 11
2 1 3 2 2 4 6 3 1 3 2 1 3 4 4 4 5 5 4 3 2 2 4 4 3 3 1 3 3 2 3 4 6 8 7 6 6 4 6 11 12 12 10 8 8 9 7 7 7 7 6 7 8 8 8 7 6 7 8 9 10 10 10 9 6 3 4 9 9 5 3 4 5 2 1 4 5 4 2 1 4 7 9 11 11 10 10 9
2 2 2 3 4 5 4 3 3 2 0 2 4 3 3 4 3 4 6 5 3 3 5 3 2 4 4 5 4 4 5 5 4 5 5 6 4 4 6 11 13 13 12 10 9 8 7 7 7 7 7 8 8 7 7 7 8 8 9 12 13 13 13 10 6 4 7 11 9 6 5 0 2 2 3 6 7 7 5 3 3 5 8 10 10 9 9 9
3 2 1 3 5 4 2 1 3 4 2 3 3 2 3 3 1 1 4 4 2 4 5 4 4 5 5 5 6 5 6 6 4 4 4 4 4 4 4 8 13 14 12 10 10 8 6 7 9 10 10 8 5 3 3 5 8 11 13 15 13 14 15 10 6 6 7 8 8 9 9 5 5 7 5 7 8 8 7 4 4 5 7 9 9 8 9 8
2 1 2 0 2 2 3 2 2 3 2 3 2 0 2 3 1 0 2 2 2 4 4 3 2 3 3 4 5 4 4 5 5 4 3 2 2 5 4 5 12 11 8 9 12 9 6 7 11 14 14 13 10 5 2 4 7 8 10 12 11 12 14 11 9 9 7 6 8 9 10 7 8 9 4 8 9 9 7 4 3 5 6 8 9 9 10 9
2 1 2 2 2 2 1 0 2 3 3 3 3 3 3 3 3 2 0 2 3 4 3 3 1 4 4 4 5 3 2 5 5 3 1 0 2 6 6 5 8 10 9 11 13 9 6 8 11 13 14 16 16 13 11 9 8 8 8 8 8 9 10 11 12 12 10 9 9 10 11 10 9 7 4 9 8 8 7 5 3 5 6 8 9 10 10 10
2 1 1 1 3 3 3 3 3 5 4 3 3 3 3 4 3 3 3 4 3 3 4 1 3 7 6 3 5 2 2 1 2 3 4 4 1 4 4 5 7 10 10 11 11 9 8 7 9 13 13 15 16 15 14 12 10 11 12 12 12 11 11 11 12 14 14 13 12 13 15 14 10 6 4 7 6 6 6 4 3 4 7 8 9 10 10 10
3 2 2 3 4 3 3 3 4 5 3 3 3 2 3 4 4 5 4 5 3 3 6 7 8 10 7 1 1 2 6 6 4 3 6 6 3 0 1 3 3 6 10 10 9 9 8 5 6 9 9 11 14 14 12 12 12 13 13 13 13 12 12 12 12 13 13 13 16 18 17 14 9 2 2 4 3 4 5 4 3 4 6 8 9 9 11 11
3 2 3 5 3 1 2 3 3 4 3 3 3 1 2 2 5 8 5 4 3 3 7 10 11 9 4 2 5 6 8 9 9 8 9 8 5 4 2 2 3 1 6 8 8 9 8 5 5 7 8 9 11 12 13 12 12 14 14 14 14 12 11 10 10 11 12 13 16 16 14 11 6 4 5 3 3 5 6 5 4 4 6 9 10 10 11 12
4 1 2 4 2 1 2 2 3 4 2 1 2 3 3 3 5 7 4 2 2 1 5 10 12 8 3 2 7 10 12 12 12 11 9 8 8 8 6 5 6 4 2 5 7 8 8 7 5 7 8 8 8 10 11 11 11 12 11 13 14 13 11 9 9 10 12 12 12 12 11 7 2 2 3 3 4 4 4 4 3 4 7 9 10 11 11 12
Wind_Direction
347 345 342 342 342 341 340 339 337 338 337 336 337 337 338 338 338 336 337 337 337 336 335 335 331 331 324 319 313 311 321 303 279 228 229 251 232 212 187 173 157 151 156 155 153 153 155 164 161 163 168 175 197 170 168 184 181 190 216 235 250 273 298 356 320 310 318 309 299 276 253 252 238 170 165 150 161 161 157 164 153 149 121 111 114 122 135 140
346 344 342 340 340 339 339 338 336 337 336 335 334 335 335 334 336 335 335 337 335 335 334 332 331 330 323 318 313 311 322 287 262 248 244 253 237 194 173 172 160 158 163 160 162 160 159 166 164 170 180 181 176 162 172 176 197 237 264 264 275 328 336 344 313 301 304 302 302 289 260 250 244 164 169 174 165 163 156 153 151 142 127 121 123 133 140 143
344 343 341 338 338 338 338 337 336 336 335 334 333 334 332 332 335 332 333 334 333 335 331 331 329 327 322 314 309 313 321 286 262 244 244 265 222 185 169 173 165 162 168 167 168 166 163 164 165 172 187 193 177 182 197 176 191 240 255 273 334 9 328 319 309 300 306 301 286 281 263 241 223 154 173 179 162 165 163 154 157 154 142 135 135 141 145 149
342 341 340 338 337 336 336 335 334 335 334 332 332 331 329 331 333 330 331 331 332 333 329 330 327 327 322 311 310 322 301 270 261 149 100 354 195 177 171 172 166 164 171 172 173 174 162 158 165 176 191 197 184 197 215 184 182 215 245 295 347 349 313 321 329 307 305 293 271 277 266 222 171 148 175 171 166 170 166 162 165 162 151 143 143 147 149 150
340 339 338 336 336 335 335 334 333 334 333 331 331 329 328 331 332 329 328 328 329 330 329 327 326 327 319 314 331 325 280 249 84 113 346 333 183 171 171 170 166 166 172 174 175 174 158 156 168 181 203 212 187 200 210 183 202 246 241 280 322 320 312 345 337 315 305 283 260 259 248 192 140 155 187 174 173 169 161 171 169 160 153 148 147 151 152 151
337 336 335 335 335 333 333 333 332 332 331 330 329 327 328 330 330 326 324 325 325 326 328 326 327 325 314 326 334 280 261 280 66 59 317 314 176 169 170 169 165 167 173 174 172 169 162 165 174 181 211 225 202 224 239 166 201 257 254 279 312 311 315 339 331 310 299 285 257 238 220 154 143 161 193 178 166 154 158 169 159 154 154 149 148 152 154 154
336 335 333 334 334 332 332 331 331 331 330 329 328 326 327 329 326 323 322 320 320 323 324 324 326 326 329 341 301 242 244 297 13 321 314 211 167 166 167 166 164 170 176 174 173 172 168 174 183 184 209 221 215 248 296 178 202 244 287 307 317 322 312 321 327 314 325 332 314 224 190 160 154 160 185 167 145 150 157 156 146 149 154 150 151 152 152 157
334 335 333 333 333 332 331 331 330 329 328 327 327 325 325 326 322 320 318 315 316 318 317 321 321 321 3 315 267 245 234 327 359 326 309 157 162 163 163 163 168 175 179 179 176 175 174 179 191 195 214 235 1 256 286 242 206 218 285 320 291 304 300 298 333 4 19 24 48 118 150 169 154 149 157 139 138 151 149 145 144 148 154 154 155 150 153 164
334 334 332 332 332 331 330 330 329 328 327 327 325 323 323 324 320 316 314 312 311 311 311 311 312 318 30 268 269 263 186 15 357 335 146 151 158 161 161 165 174 178 180 184 181 182 182 184 198 211 269 342 311 290 298 275 218 219 295 319 283 287 283 274 38 48 43 47 44 92 115 139 134 134 140 140 148 156 154 151 149 152 155 157 156 151 159 168
336 334 333 332 331 330 329 329 328 326 325 325 323 322 324 322 317 314 311 309 305 303 303 299 307 111 228 259 262 251 77 23 18 115 144 150 154 160 165 169 176 180 182 185 186 191 194 193 200 211 285 295 282 303 285 285 343 325 295 298 274 279 136 237 88 97 101 47 44 134 97 99 134 153 144 158 163 163 166 158 154 156 156 157 153 154 165 168
336 333 332 332 331 330 329 328 327 325 324 325 322 322 324 320 315 313 308 305 301 297 294 287 238 162 240 264 256 269 53 28 91 132 149 151 155 164 170 172 176 183 183 185 192 197 208 204 179 205 260 309 303 297 284 306 324 310 292 270 231 211 162 184 140 123 137 44 54 183 129 116 165 177 149 162 163 162 165 157 157 158 155 157 153 155 166 166
334 333 333 332 330 329 329 327 326 325 324 323 322 324 322 317 315 311 306 302 297 294 285 249 157 160 240 255 250 312 24 42 134 143 154 155 159 165 168 174 178 186 187 190 196 197 214 202 188 237 288 333 308 297 324 321 308 289 277 267 200 176 166 156 146 118 122 93 123 186 132 133 149 134 144 159 157 158 164 157 158 158 155 156 154 156 163 165
333 332 333 331 329 329 328 327 325 324 324 322 323 325 321 318 316 311 305 301 296 290 258 167 140 168 248 254 216 354 16 111 142 148 156 158 161 165 169 175 178 189 196 201 201 196 211 200 218 267 306 304 299 321 316 297 285 275 270 282 211 157 122 130 147 129 116 120 194 211 124 127 105 120 146 157 155 161 163 160 161 158 155 155 157 160 163 168
332 331 331 330 329 329 328 326 325 324 323 323 324 326 323 321 318 312 306 300 282 240 177 136 141 193 249 259 74 34 92 131 149 154 159 162 161 163 166 170 180 193 201 209 208 202 213 215 247 272 281 276 291 304 291 272 251 264 267 267 265 59 75 120 148 140 125 93 272 280 103 118 113 130 152 159 162 168 163 165 166 158 157 159 163 167 166 173
330 330 329 328 329 328 327 325 324 324 323 324 325 328 326 324 327 324 316 296 238 164 129 127 164 218 258 223 93 68 125 140 159 161 163 165 161 161 163 167 178 184 192 202 198 206 221 226 245 268 273 265 272 280 281 262 221 252 286 358 358 18 77 117 132 137 120 86 287 303 67 114 127 149 164 167 171 177 171 171 170 164 164 165 168 173 172 176
329 328 327 327 328 327 326 325 324 324 323 324 328 331 330 340 354 347 6 126 137 128 127 149 192 231 278 189 109 111 150 155 162 163 167 170 167 163 161 162 167 171 182 188 193 211 215 226 245 266 278 265 260 272 284 268 188 193 312 16 20 10 69 98 103 126 111 119 212 303 8 130 152 168 173 177 183 186 181 177 177 172 169 170 171 176 176 176
328 327 326 325 326 326 325 325 324 324 323 326 332 339 350 32 44 52 80 104 112 126 169 248 204 227 268 115 136 171 163 151 157 164 170 176 177 163 158 162 165 164 170 177 199 215 202 218 241 249 252 250 263 278 280 303 63 41 343 17 22 2 37 91 137 146 132 159 195 207 238 224 146 175 186 191 195 195 192 184 183 178 173 173 175 177 178 177
326 325 323 323 325 325 324 323 323 324 323 326 337 9 65 69 87 76 84 113 126 158 221 257 230 240 222 168 168 138 138 146 156 164 168 173 174 163 161 164 165 164 172 186 198 206 197 204 233 250 243 234 243 259 280 3 5 346 343 354 358 356 21 67 113 148 165 192 209 196 221 223 167 177 190 197 204 203 200 189 185 183 176 176 179 180 178 178
324 322 321 322 324 323 322 322 321 323 324 327 345 64 39 53 109 201 191 178 186 198 228 192 197 268 126 151 121 91 123 143 152 161 165 166 164 165 168 164 168 175 187 193 185 194 204 209 226 245 251 246 231 251 299 335 327 324 323 320 336 351 17 57 105 155 174 187 208 209 216 214 186 182 188 194 203 207 202 189 185 186 181 181 184 183 180 183
323 322 321 321 322 321 320 319 319 323 322 324 334 290 252 223 208 195 187 210 229 254 345 158 194 279 87 119 111 111 127 139 153 165 165 164 161 165 171 168 175 191 205 203 176 184 217 238 237 235 241 266 305 272 293 304 305 310 305 311 344 357 19 52 114 158 180 195 210 213 219 218 197 187 188 188 194 201 202 191 185 189 186 185 188 184 183 188
323 321 321 321 320 319 318 315 317 320 317 313 297 255 266 288 261 174 174 217 222 238 265 232 237 276 98 106 117 125 134 146 160 166 165 167 166 166 170 173 180 194 207 213 194 172 213 240 246 243 248 269 288 281 282 290 296 300 300 309 347 16 40 52 112 154 178 207 219 211 222 228 209 195 190 190 197 198 197 194 188 190 188 186 191 188 185 190
323 321 320 319 319 318 316 314 316 317 312 287 233 242 303 9 352 347 307 246 213 220 236 234 251 261 225 198 159 169 226 163 155 164 169 174 180 178 173 181 193 195 191 203 210 198 217 241 251 253 270 268 264 270 275 282 285 288 294 300 344 20 53 106 127 152 172 202 229 205 218 228 209 201 198 194 201 204 199 196 190 190 189 188 191 190 190 192
323 321 320 318 318 316 313 315 317 311 285 208 220 238 284 3 347 322 272 275 226 194 214 220 225 230 221 224 205 211 227 172 157 169 175 181 190 191 180 186 203 202 185 194 213 223 226 233 290 297 270 257 263 268 273 278 273 276 299 317 8 14 7 76 137 167 177 195 227 205 220 238 204 197 202 197 199 207 204 201 195 191 192 192 192 193 194 194
323 321 319 318 317 314 314 318 316 287 219 224 246 245 272 318 322 310 258 269 251 171 191 207 215 226 223 210 181 198 217 196 169 170 176 186 190 187 192 196 207 209 197 203 217 238 248 185 80 354 226 261 285 276 270 278 274 283 321 339 1 3 354 23 130 172 185 204 218 205 217 244 212 202 204 194 192 202 203 203 200 195 194 193 194 195 196 196
323 320 318 317 315 313 315 319 304 207 213 252 254 243 253 282 312 306 271 256 216 161 161 178 203 222 207 172 174 196 213 214 197 168 175 192 188 177 195 202 211 216 208 210 220 239 252 232 213 244 260 277 286 283 286 311 300 275 38 2 348 341 350 43 148 182 196 205 204 212 225 191 197 208 213 191 184 195 198 203 205 197 194 194 195 196 197 198
323 320 317 315 313 311 316 319 177 202 266 246 223 195 198 260 301 285 267 252 198 153 151 169 187 180 177 180 178 184 208 209 193 162 173 195 198 190 198 188 208 235 215 209 228 243 249 245 242 257 271 273 274 274 267 288 276 255 52 358 337 331 343 69 189 227 268 53 171 213 253 167 176 194 206 194 185 193 194 201 206 198 195 196 197 196 197 198
324 321 317 310 307 308 312 326 210 257 264 190 143 156 185 288 289 236 238 232 184 148 144 159 181 163 172 178 170 176 188 156 151 163 176 194 199 205 218 191 194 234 217 203 229 233 229 234 235 248 262 263 263 262 176 223 268 308 31 346 334 338 345 79 235 262 306 0 178 208 246 271 208 174 182 188 190 195 195 199 203 200 198 198 198 196 196 199
326 322 314 303 296 285 266 285 279 242 266 82 153 187 290 300 257 215 243 213 139 135 137 124 133 165 177 173 176 188 117 132 161 170 172 190 197 205 226 212 208 211 195 208 227 170 177 230 238 240 249 245 248 274 324 283 270 343 14 335 335 339 335 329 264 274 309 281 219 189 209 253 225 144 161 183 192 200 199 198 199 199 199 198 199 198 196 198
326 320 310 296 286 266 240 252 249 229 283 207 184 207 315 271 222 224 254 217 129 170 127 128 156 171 166 172 188 203 172 167 197 157 161 189 205 223 243 228 228 219 199 219 240 208 148 207 309 276 257 249 265 298 314 288 280 348 344 311 309 306 302 296 274 289 284 261 274 148 193 252 204 144 163 186 197 206 201 197 199 199 198 199 199 198 196 196
328 319 304 278 265 240 213 230 237 231 218 191 186 278 259 215 218 223 215 135 130 121 97 150 171 163 165 171 187 200 198 177 135 147 164 183 196 215 267 249 236 233 211 221 242 253 253 241 261 269 269 283 296 300 295 283 292 313 304 292 294 277 267 280 273 292 264 223 60 79 190 252 263 141 157 180 199 210 199 192 195 196 195 197 198 198 197 195
333 322 293 230 202 185 178 200 230 220 199 192 202 260 224 201 240 240 169 109 119 123 139 164 153 156 174 181 181 187 194 168 144 164 172 171 185 200 213 207 215 227 225 224 232 244 249 246 246 247 247 263 274 274 269 259 263 278 275 281 291 270 236 248 212 228 257 162 76 37 200 233 250 138 141 164 181 202 198 189 190 191 191 192 195 196 196 195
341 332 289 203 182 179 187 128 128 184 180 187 239 228 216 203 222 245 101 161 208 125 150 154 152 175 184 188 185 179 184 170 162 176 178 178 186 194 203 202 190 203 221 224 220 227 235 240 243 239 228 235 254 263 249 232 226 239 247 260 279 272 247 244 207 218 259 91 76 333 231 232 241 210 162 177 180 193 196 187 186 189 189 188 191 194 193 194
2 10 28 177 173 181 204 181 145 160 162 218 240 217 236 231 193 68 68 145 68 47 34 135 157 177 181 192 188 180 187 174 170 186 188 189 192 194 206 209 202 210 225 220 215 220 224 227 228 231 225 217 232 248 232 214 210 218 232 232 241 275 279 245 202 234 226 106 81 27 245 236 208 139 106 116 149 176 187 188 181 183 186 184 187 190 191 194
25 40 62 116 151 173 189 180 167 162 193 252 227 208 237 233 134 91 59 65 53 33 346 147 166 171 181 200 184 176 190 173 168 187 189 192 201 199 203 211 211 219 235 227 220 220 228 224 200 206 213 198 209 231 248 261 238 218 235 245 234 273 285 273 294 347 338 344 57 141 232 272 91 111 112 116 129 155 180 184 174 176 181 180 183 188 191 193
42 54 65 80 104 161 177 174 175 186 244 242 217 216 233 144 103 113 63 42 17 358 0 174 194 193 186 201 185 180 195 186 173 190 195 196 207 203 201 205 207 214 224 224 218 215 239 264 165 182 199 189 201 216 230 254 255 218 210 229 236 234 242 278 309 333 325 311 303 196 232 305 14 108 132 146 160 164 171 172 169 172 174 175 180 186 190 192
53 56 63 84 91 210 185 168 153 175 246 241 218 216 239 48 40 37 33 353 335 339 325 204 185 198 184 178 184 186 201 211 184 188 199 203 211 211 207 201 198 207 217 219 203 195 237 248 156 173 205 206 217 215 205 227 242 189 208 224 183 175 248 269 281 284 285 280 287 285 239 182 175 152 130 138 151 150 158 166 168 169 169 174 180 184 188 192
227 58 78 81 46 47 159 149 130 186 246 247 226 220 35 50 23 17 9 339 327 318 303 243 167 208 191 173 180 181 190 200 186 190 198 198 209 210 210 208 197 203 214 224 232 219 243 245 150 177 212 199 215 250 209 226 247 208 202 203 138 157 252 274 280 288 279 250 221 250 280 73 176 154 141 155 151 146 156 164 165 165 168 176 182 183 187 190
238 223 96 52 29 80 120 121 165 234 242 241 231 249 275 188 38 357 339 333 319 298 298 299 129 257 203 178 175 173 182 185 179 193 198 186 195 197 204 208 194 200 210 218 231 218 234 260 173 185 209 174 174 236 220 215 236 240 245 246 202 203 202 199 254 276 274 263 200 175 215 236 180 127 122 162 151 147 159 166 167 170 174 178 182 183 184 187
238 225 120 36 15 82 93 338 263 241 234 229 218 186 216 241 339 328 317 320 303 286 301 340 33 295 232 189 164 164 180 188 177 192 203 188 179 181 197 204 193 200 208 212 226 222 209 256 224 174 187 173 174 216 218 193 207 235 261 248 236 255 178 174 254 259 241 285 269 157 178 161 118 33 7 3 134 148 161 176 176 174 177 179 179 179 179 181
243 239 112 32 331 352 343 293 241 229 226 234 251 158 115 283 293 300 300 298 291 283 307 337 336 283 291 208 178 167 183 196 190 195 201 184 175 178 195 202 197 200 203 207 221 225 207 233 238 152 154 200 206 204 218 212 192 205 229 226 213 222 204 194 260 244 230 261 285 300 227 122 77 25 356 346 326 161 171 183 182 178 179 178 176 173 171 174
247 236 111 65 307 343 328 252 211 223 232 245 286 279 343 315 291 288 276 248 265 268 282 303 297 288 307 266 208 177 186 200 201 203 201 189 198 209 193 195 202 197 196 204 212 217 211 215 235 222 178 208 209 189 214 248 240 210 213 221 218 212 217 221 226 232 240 251 262 274 258 91 64 33 13 352 326 269 193 185 180 184 179 171 168 163 161 169
247 273 98 100 306 333 291 236 180 228 245 262 312 280 304 311 287 291 292 238 247 246 247 277 283 275 278 277 238 185 196 204 203 208 209 202 214 221 184 187 203 197 189 204 206 204 214 222 234 244 234 230 210 157 196 270 302 284 247 237 226 205 218 232 216 218 237 240 237 250 258 76 69 43 31 4 326 303 257 190 179 190 177 160 159 154 155 166
277 28 100 139 294 298 273 235 162 207 234 342 323 269 257 266 270 282 294 259 246 237 239 263 271 262 264 319 320 218 203 204 208 214 220 217 221 222 177 177 202 202 193 207 201 190 201 225 236 240 246 256 251 216 220 245 276 273 248 241 243 225 234 250 242 241 249 238 234 233 217 157 122 71 43 22 348 339 313 173 171 182 164 149 152 147 151 162
355 19 120 150 237 262 275 274 185 211 202 244 263 241 222 242 268 280 288 286 273 266 269 269 265 262 299 319 301 242 204 209 211 216 231 235 219 203 187 190 200 202 198 204 191 174 187 210 224 229 222 229 234 222 213 211 229 241 226 222 230 234 241 248 250 265 257 252 262 270 231 142 126 157 58 53 39 38 38 105 167 172 153 145 146 141 145 153
303 229 147 157 197 241 282 338 330 297 324 254 247 236 231 225 230 271 288 289 286 291 286 281 289 289 286 281 273 254 247 245 222 209 226 233 193 156 196 202 202 207 208 201 180 169 192 200 200 223 224 205 204 206 204 206 207 212 223 225 224 230 239 240 241 239 227 238 251 257 256 166 104 266 334 35 41 47 62 93 148 167 152 142 141 140 144 148
299 234 174 164 186 235 259 343 304 287 313 286 242 215 254 247 170 235 270 264 271 303 290 280 290 280 264 261 256 238 231 234 230 210 205 219 194 152 168 202 211 215 207 192 183 184 209 211 200 220 236 231 214 170 155 219 216 205 213 220 221 233 241 236 228 236 236 239 234 225 236 275 305 288 325 30 29 33 50 80 129 151 145 137 137 140 143 145
305 295 351 11 195 223 209 195 268 280 325 315 288 262 273 283 332 129 214 232 312 321 288 252 281 281 267 275 263 238 211 209 215 211 198 211 175 138 126 201 212 196 161 170 192 200 217 218 210 220 235 248 257 251 218 246 244 224 214 214 215 228 236 230 222 226 232 247 252 246 244 243 251 267 328 35 20 16 34 58 116 136 137 135 138 140 141 145
339 345 22 346 287 257 226 351 326 297 288 281 291 299 272 285 335 32 29 271 298 328 298 201 156 334 323 296 269 253 196 200 193 167 155 311 169 156 130 133 173 164 156 184 196 202 226 220 209 216 228 240 250 254 251 250 252 249 243 239 237 236 236 234 231 225 218 227 249 267 268 251 233 250 347 38 21 10 32 52 100 134 138 136 141 145 147 149
357 340 77 267 281 310 329 335 316 290 276 266 270 270 270 296 343 26 355 289 264 356 349 340 26 356 339 284 252 276 39 279 180 97 39 358 313 190 150 122 147 165 185 199 191 198 231 229 210 216 225 232 237 242 245 244 246 252 252 250 249 245 242 242 242 236 225 225 233 239 251 261 260 268 355 39 28 18 45 70 97 130 144 145 148 152 149 148
358 353 7 279 266 292 296 280 276 272 256 230 234 252 291 297 338 4 333 291 283 24 16 4 1 351 345 23 162 63 38 1 329 358 347 336 338 346 104 89 114 161 188 201 190 191 213 221 212 220 229 234 235 238 240 240 246 252 252 250 247 246 245 243 244 243 233 225 230 232 240 256 264 263 69 63 41 41 63 82 92 122 150 152 151 150 145 144
346 349 334 294 273 273 271 254 262 267 249 224 230 344 335 301 353 345 308 264 288 351 15 3 353 340 321 96 70 35 10 340 313 306 308 299 298 320 341 359 359 106 183 196 188 187 203 210 202 215 232 233 226 227 230 231 241 248 249 249 246 243 245 243 237 240 236 225 225 230 239 251 244 168 136 114 67 49 60 80 107 140 160 157 151 149 149 149
334 263 265 289 278 172 274 257 238 250 254 348 356 349 326 317 347 334 304 211 218 328 12 353 341 330 305 81 34 359 335 316 303 298 291 277 275 280 277 277 289 290 220 193 186 189 207 216 204 210 230 226 204 212 224 225 232 241 240 240 240 237 238 240 232 230 233 231 226 225 234 251 257 173 171 117 73 47 44 57 97 141 159 161 153 150 152 151